www.pogodaiklimat.ru

Погода и климат >> Архив погоды >> Пакистан >> Рахим Яр Хан


ПОГОДА в Рахим Яр Хан

  • Прогноз погоды в Рахим Яр Хан
  • Монитор погоды в Рахим Яр Хан

АРХИВ ПОГОДЫ в Рахим Яр Хан

Время (UTC), дата Ветер
(напр.,м/с)
 
Видим.   Явления Облачность Т
(С)
Тd
(С)
f
(%)
Тe
(С)
Тes
(С)
Комфортность P
(гПа)
Po
(гПа)
Тmin
(С)
Tmax
(С)
R
(мм)
R24
(мм)
S
(см)
12 16.08 штиль 0 4000 м ясно +36.5 +24.6 51 +49 +54 опасность
перегрева
996.4 987.3 +37.8
15 16.08 штиль 0 4000 м дым 8/8 900 м
[Sc Ac trans]
+34.0 +24.1 56 +46 +46 опасность
перегрева
997.4 988.2
18 16.08 штиль 0 4000 м дым 9/0
[Ac trans]
+32.0 +23.4 60 +43 +43 опасность
перегрева
998.7 989.5
21 16.08 штиль 0 4000 м дым 5/0
[Ac trans]
+30.5 +24.1 69 +42 +42 опасность
перегрева
999.5 990.2
00 17.08 штиль 0 4000 м дым 5/0
[Ac trans]
+29.0 +24.8 78 +41 +41 опасность
перегрева
998.9 989.6
03 17.08 штиль 0 4000 м ясно +29.5 +24.5 75 +42 +48 опасность
перегрева
999.7 990.4 +27.4
06 17.08 штиль 0 4000 м 3/3 900 м
[Sc]
+33.0 +24.6 61 +46 +63 опасность
перегрева
1000.3 991.1
12 17.08 штиль 0 4000 м ясно +37.0 +23.6 46 +47 +52 опасность
перегрева
997.3 988.2 +38.2
15 17.08 штиль 0 4000 м ясно +34.5 +24.1 55 +47 +47 опасность
перегрева
998.4 989.2
18 17.08 штиль 0 4000 м ясно +32.5 +24.0 61 +44 +44 опасность
перегрева
999.5 990.3
21 17.08 штиль 0 4000 м 3/3 900 м
[Sc]
+31.0 +23.9 66 +43 +43 опасность
перегрева
999.2 989.9
00 18.08 штиль 0 4000 м ясно +29.5 +23.8 71 +40 +40 очень
душно
998.4 989.1
03 18.08 ЮЗ 1 4000 м ясно +30.0 +24.3 72 +42 +48 опасность
перегрева
1002.6 993.3 +27.4
09 18.08 штиль 0 4000 м ясно +36.0 +24.9 53 +49 +72 опасность
перегрева
1001.8 992.7
12 18.08 штиль 0 4000 м ясно +37.5 +23.4 45 +48 +53 опасность
перегрева
999.3 990.2 +38.6
18 18.08 штиль 0 4000 м ясно +33.0 +24.6 61 +46 +46 опасность
перегрева
1003.0 993.7
21 18.08 штиль 0 4000 м ясно +30.0 +24.3 72 +42 +42 опасность
перегрева
1002.8 993.5
00 19.08 штиль 0 4000 м ясно +29.0 +24.0 74 +40 +40 очень
душно
1002.2 992.8
03 19.08 штиль 0 4000 м ясно +30.0 +24.3 72 +42 +49 опасность
перегрева
1005.6 996.2 +27.2
06 19.08 штиль 0 4000 м ясно +34.5 +23.9 54 +46 +71 опасность
перегрева
1006.0 996.8
09 19.08 ЮЗ 1 4000 м ясно +36.5 +23.8 48 +47 +67 опасность
перегрева
1004.5 995.3
12 19.08 штиль 0 4000 м ясно +39.0 +22.7 39 +48 +52 опасность
перегрева
1002.2 993.1 +39.4
15 19.08 штиль 0 4000 м ясно +34.5 +23.9 54 +46 +46 опасность
перегрева
1003.2 994.0
18 19.08 штиль 0 4000 м ясно +32.0 +24.2 63 +44 +44 опасность
перегрева
1004.8 995.5
21 19.08 штиль 0 4000 м ясно +29.0 +24.0 74 +40 +40 очень
душно
1004.5 995.1
00 20.08 штиль 0 4000 м ясно +28.0 +23.7 77 +38 +38 очень
душно
1005.0 995.6
06 20.08 ЮЗ 2 4000 м ясно +35.0 +23.7 52 +46 +64 опасность
перегрева
1006.9 997.7
09 20.08 ЮЗ 2 4000 м ясно +38.5 +22.0 39 +47 +63 опасность
перегрева
1004.5 995.4
12 20.08 ЮЗ 1 4000 м ясно +38.0 +23.1 43 +48 +52 опасность
перегрева
1002.0 992.9 +39.2
15 20.08 штиль 0 4000 м ясно +34.0 +24.1 56 +46 +46 опасность
перегрева
1002.0 992.8
18 20.08 штиль 0 4000 м ясно +31.5 +23.6 63 +43 +43 опасность
перегрева
1004.0 994.7
21 20.08 штиль 0 4000 м ясно +29.0 +24.0 74 +40 +40 очень
душно
1003.6 994.2
00 21.08 штиль 0 4000 м дым ясно +28.0 +23.7 77 +38 +38 очень
душно
1003.2 993.8
03 21.08 ЮЗ 1 4000 м ясно +29.5 +24.5 75 +42 +47 опасность
перегрева
1003.2 993.8 +27.4
06 21.08 З 2 4000 м ясно +34.5 +23.9 54 +46 +64 опасность
перегрева
1003.8 994.6
09 21.08 ЮЗ 2 4000 м ясно +38.5 +22.9 41 +48 +65 опасность
перегрева
1001.9 992.8
12 21.08 ЮЗ 1 4000 м ясно +38.5 +22.9 41 +48 +52 опасность
перегрева
999.8 990.7 +39.4
15 21.08 штиль 0 4000 м дым ясно +33.5 +23.5 56 +44 +44 опасность
перегрева
1000.4 991.2
18 21.08 ЮЗ 1 4000 м дым ясно +32.0 +24.2 63 +44 +44 опасность
перегрева
1002.1 992.8
21 21.08 ЮЗ 1 4000 м дым ясно +30.0 +24.1 71 +42 +42 опасность
перегрева
1001.6 992.3
00 22.08 ЮЗ 1 4000 м дым ясно +28.5 +24.2 78 +40 +40 очень
душно
1001.9 992.5
03 22.08 ЮЗ 1 4000 м ясно +29.5 +24.5 75 +42 +47 опасность
перегрева
1003.6 994.2 +27.2
06 22.08 ЮЗ 2 4000 м ясно +34.0 +24.9 59 +47 +65 опасность
перегрева
1003.6 994.4
12 22.08 ЮЗ 1 4000 м ясно +38.0 +24.0 45 +49 +53 опасность
перегрева
1000.1 991.0 +39.0
15 22.08 С 3 1000 м пыль ясно +33.0 +22.1 53 +42 +42 опасность
перегрева
1001.1 991.9
18 22.08 штиль 0 4000 м ясно +30.0 +20.3 56 +37 +37 очень
душно
1002.1 992.8
21 22.08 штиль 0 4000 м ясно +27.5 +20.8 67 +34 +34 очень
душно
1002.1 992.7
00 23.08 штиль 0 4000 м ясно +27.0 +22.6 77 +36 +36 очень
душно
1002.5 993.1
03 23.08 штиль 0 4000 м ясно +29.0 +24.0 74 +40 +46 очень
душно
1004.1 994.7 +26.8
06 23.08 ЮЗ 3 4000 м ясно +35.0 +23.7 52 +46 +61 опасность
перегрева
1004.1 994.9

 

Местоположение метеостанции Рахим Яр Хан (Пакистан): широта 28.43 долгота 70.32 высота над уровнем моря 83 м.

В архиве по умолчанию представлена погода в Рахим Яр Хан за последнюю неделю. Архивные данные за месяц целиком и за предыдущие месяцы, начиная с января 2011 года, Вы можете получить, выбрав интересующий диапазон дат из раскрывающегося списка и нажав кнопку "Ввод!".


*Определитесь, кто Вы:
робот инопланетянин человек

Внимание! Время в таблицах - всемирное. Для получения местного времени необходимо прибавить поправку, которая равна 5 ч.

Смотрите также архив погоды в соседних городах и на ближайших метеорологических станциях:

Погода в Ханпуре (Пакистан) (43 км)
Погода в Рохри (Пакистан) (163 км)
Погода в Бархане (Пакистан) (171 км)
Погода в Суккуре (Пакистан) (172 км)
Погода в Бахавалпуре (Пакистан) (178 км)
Погода а Бахавалпур аэропорту (Пакистан) (178 км)
Погода в Джайсалмере (Раджастхан, Индия) (180 км)
Погода в Джейкобабаде (Пакистан) (182 км)
Погода в Дера Гази Хан (Пакистан) (183 км)
Погода в Мултане (Пакистан) (224 км)

Пояснения к столбцам:

Ветер - указаны скорость ветра в м/с - средняя за 10 мин, порывы в срок и между сроками (в фигурных скобках) и направление, откуда дует ветер: С - северный, СВ - северо-восточный, В - восточный, ЮВ - юго-восточный, Ю - южный, ЮЗ - юго-западный, З - западный, СЗ - северо-западный.
Видимость - горизонтальная дальность видимости в метрах или километрах. При видимости от 1 до 10 км при отсутствии осадков обычно наблюдается дымка, при ухудшении видимости до 1 км и менее - туман. В сухую погоду видимость может ухудшаться дымом, пылью или мглою.
Явления - указаны атмосферные явления, наблюдавшиеся в срок или в последний час перед сроком; фигурными скобками обозначены явления, наблюдавшиеся между сроками (за 1-3 часа до срока); квадратными скобками обозначены град или гололедные отложения с указанием их диаметра в мм.
Облачность - указаны через наклонную черту общая и нижняя облачность в баллах и высота нижней границы облаков в метрах; квадратными скобками обозначены формы облаков: Ci - перистые, Cs - перисто-слоистые, Cc - перисто-кучевые, Ac - высококучевые, As - высокослоистые, Sc - слоисто-кучевые, Ns - слоисто-дождевые, Cu - кучевые, Cb - кучево-дождевые. Подробнее классификацию облаков см. в Атласе облаков (PDF).
T - Температура воздуха - температура, измеренная на высоте 2 м над землей.
Td - Температура точки росы - температура, при понижении до которой содержащийся в воздухе водяной пар достигнет насыщения.
f - Относительная влажность воздуха - влажноcть воздуха, измеренная на высоте 2 м над землей.
Te - Эффективная температура - температура, которую ощущает одетый по сезону человек в тени. Характеристика душности погоды. При расчете учитывается влияние влажности воздуха и скорости ветра на теплоощущения человека.
Tes - Эффективная температура на солнце - температура, которую ощущает человек, с поправкой на солнечный нагрев. Характеристика знойности погоды. Зависит от высоты солнца над горизонтом, облачности и скорости ветра. Ночью, в пасмурную погоду, а также при ветре 12 м/с и более поправка равна нулю.
P - Атмосферное давление - приведенное к уровню моря атмосферное давление.
Po - Атмосферное давление - измеренное на уровне метеостанции атмосферное давление.
Tmin - Минимальная температура - минимум температуры воздуха на высоте 2 м над землей.
Tmax - Максимальная температура - максимум температуры воздуха на высоте 2 м над землей.
R - Количество осадков - Количество выпавших осадков за период времени, мм. При наведении курсора мыши на число - период времени, за который выпало указанное количество осадков.
R24 - Количество осадков - Количество выпавших осадков за 24 часа, мм.
S - Снежный покров - Высота снежного покрова, см. При наведении курсора мыши на число - состояние снежного покрова и степень покрытия местности в баллах.